{"data":{"norad_id":52940,"intl_designator":"2022-073A","name":"WFOV (USA 332)","alt_names":[],"object_type":"PAYLOAD","status":"ACTIVE","operator":null,"country":"US","launch_date":"2022-07-01","launch_site_code":"AFETR","launch_vehicle":null,"mission":null,"orbit_class":"UNKNOWN","rcs_meters":null,"size_class":null,"mass_kg":null,"dimensions":null,"purposes":["comms"],"wikipedia_slug":null,"has_3d_model":false,"image_url":null,"decayed_at":null,"tle_current":{"epoch":"2026-05-24T21:27:55.924128Z","epoch_age_seconds":81271,"freshness":"FRESH","line1":"1 52940U 22073A   26144.89439727 -.00000364  00000+0  00000+0 0  9992","line2":"2 52940   3.6537  78.8191 0002413 243.6678   1.2099  1.00272547 14134","mean_motion":1.00272547,"eccentricity":0.0002413,"inclination_deg":3.6537,"raan_deg":78.8191,"arg_perigee_deg":243.6678,"mean_anomaly_deg":1.2099,"bstar":0,"rev_number":1413,"period_min":1436.0859907149,"perigee_km":35776.207048005,"apogee_km":35796.555644559,"semimajor_km":42164.518346282,"source":"CELESTRAK","updated_at":"2026-05-25T13:38:14.109038Z"}}}